Regional Weather Roundup
Issued by NWS

Home | Current Version | Previous Version | Text Only | Print | Product List | Glossary Off
Versions: 1 2 3 4 5 6 7 8 9 10 11 12 13 14 15 16 17 18 19 20 21 22 23 24 25 26 27 28 29 30 31 32 33 34 35 36 37 38 39 40 41 42 43 44 45 46 47 48 49 50

000
ASUS43 KLMK 010310
RWRKY
KENTUCKY REGIONAL WEATHER ROUNDUP
NATIONAL WEATHER SERVICE LOUISVILLE KY
1100 PM EDT TUE MAY 31 2016

NOTE "FAIR" INDICATES FEW OR NO CLOUDS BELOW 12,000 FEET
WITH NO SIGNIFICANT WEATHER AND/OR OBSTRUCTIONS TO VISIBILITY.

KYZ001>023-026-027-061>063-070>075-010400-
WESTERN AND SOUTH CENTRAL KENTUCKY

CITY           SKY/WX    TMP DP  RH WIND       PRES   REMARKS
PADUCAH        MOCLDY    73  66  78 W3        29.93R
HENDERSON      CLOUDY    79  61  53 SE3       29.93R
OWENSBORO      CLEAR     76  64  66 CALM      29.96R
HOPKINSVILLE   CLEAR     74  65  73 N3        29.94R
BOWLING GREEN  CLEAR     75  64  68 CALM      29.96R
GLASGOW        CLEAR     70  64  82 CALM      29.97R
$$

KYZ024-025-028>034-038-045-046-053-010400-
NORTH CENTRAL KENTUCKY

CITY           SKY/WX    TMP DP  RH WIND       PRES   REMARKS
LOUISVILLE/SDF PTCLDY    78  59  51 CALM      29.96R
LOUISVILLE/LOU CLEAR     73  60  63 CALM      29.97R
FORT KNOX      CLEAR     68  60  76 CALM      29.96R
$$

KYZ035>037-039>044-047>052-055>060-089>105-010400-
NORTHEAST KENTUCKY

CITY           SKY/WX    TMP DP  RH WIND       PRES   REMARKS
LEXINGTON      CLEAR     70  61  73 CALM      29.99R
COVINGTON      CLEAR     71  60  68 CALM      29.98R
FRANKFORT      CLEAR     68  60  75 CALM      29.97R
$$

KYZ054-064>069-076>088-106>120-010400-
SOUTHEAST KENTUCKY

CITY           SKY/WX    TMP DP  RH WIND       PRES   REMARKS
JACKSON        CLEAR     73  57  57 CALM      30.00R
LONDON         CLEAR     71  61  70 NE3       29.99R
SOMERSET       CLEAR     68  64  88 CALM      29.99R
MIDDLESBORO    CLEAR     67  64  91 CALM      30.00R
MONTICELLO     CLEAR     67  65  93 W9        30.00R
$$





USA.gov is the U.S. government's official web portal to all federal, state and local government web resources and services.